Regional Weather Roundup
Issued by NWS Sioux Falls, SD

Home | Current Version | Previous Version | Graphics & Text | Print | Product List | Glossary Off
Versions: 1 2 3 4 5 6 7 8 9 10 11 12 13 14 15 16 17 18 19 20 21 22 23 24 25 26 27 28 29 30 31 32 33 34 35 36 37 38 39 40 41 42 43 44 45 46 47 48 49 50

000
ASUS43 KFSD 281010
RWRFSD

WEATHER ROUNDUP FOR SE SOUTH DAKOTA/SW MINNESOTA/NW IOWA
NATIONAL WEATHER SERVICE SIOUX FALLS SD
500 AM CDT MON JUL 28 2014

NOTE: "FAIR" INDICATES FEW OR NO CLOUDS BELOW 12,000 FEET WITH NO
SIGNIFICANT WEATHER AND OR OBSTRUCTIONS TO VISIBILITY.


SDZ038>040-050-052>070-281100-
SOUTHEAST SOUTH DAKOTA

CITY           SKY/WX    TMP DP  RH WIND       PRES   REMARKS
CHAMBERLAIN    CLEAR     55  53  91 N5        30.31S
HURON          CLEAR     50  48  93 NW5       30.28R
MADISON        CLOUDY    57  57 100 N6        30.26R
MITCHELL       CLEAR     54  53  97 NW7       30.29R
SIOUX FALLS    CLOUDY    58  55  90 NW8       30.24S
WINNER         FAIR      53  50  89 W6        30.32S
YANKTON        CLEAR     55  52  88 NW9       30.27R
$$

MNZ071-072-080-081-089-090-097-098-281100-
SOUTHWEST MINNESOTA

CITY           SKY/WX    TMP DP  RH WIND       PRES   REMARKS
FAIRMONT       CLOUDY    61  55  82 N6        30.19R
JACKSON        CLOUDY    61  55  82 NW7       30.21R
LUVERNE        CLOUDY    59  54  82 NW3       30.24R
MARSHALL       CLOUDY    61  55  82 NW9       30.21S
MONTEVIDEO     CLOUDY    61  57  88 N3        30.23R
PIPESTONE      CLOUDY    57  54  88 N6        30.24R
REDWOOD FALLS  CLOUDY    62  60  93 NW6       30.20R
TRACY          CLOUDY    61  58  91 NW7       30.23R
WINDOM         CLOUDY    61  57  88 NW7       30.21R
WORTHINGTON    PTCLDY    57  55  94 NW7       30.22S
$$

IAZ001>003-012>014-020>022-031-032-NEZ013-014-SDZ071-281100-
NORTHWEST IOWA

CITY           SKY/WX    TMP DP  RH WIND       PRES   REMARKS
CHEROKEE       CLEAR     56  55  97 N5        30.22R
DENISON        CLEAR     57  55  94 CALM      30.20R
ESTHERVILLE    CLOUDY    59  58  96 NW6       30.20R
LE MARS        CLEAR     57  54  88 CALM      30.24R
ORANGE CITY    CLOUDY    61  54  77 N8        30.23S
SHELDON        CLOUDY    55  55 100 NW7       30.22R
SIOUX CITY     CLEAR     59  54  83 N6        30.22S
SPENCER        CLEAR     53  52  96 NW6       30.21R
STORM LAKE     CLEAR     55  55 100 NW9       30.21R
$$

ABBREVIATIONS USED IN REMARKS
   TC - TEMPERATURE IN CELSIUS
  WCI - WIND CHILL INDEX
   HX - HEAT INDEX
  VSB - VISIBILITY



USA.gov is the U.S. government's official web portal to all federal, state and local government web resources and services.